This is the latest recevied weather packets stored in our database for station/object N0FDH. If no packets are shown the sender has not sent any weather packets the latest 10 day(s).
| Time | Temp. | Humidity | Pressure | Rain* | Wind** | Luminosity | Snow |
|---|---|---|---|---|---|---|---|
| 1777743479 | 13.89° C | 35% | 1015.4 hPa | 0 mm | - | 594 W/m² | - |
| 1777743176 | 12.78° C | 35% | 1015.5 hPa | 0 mm | - | 409 W/m² | - |
| 1777742875 | 12.78° C | 34% | 1015.6 hPa | 0 mm | - | 491 W/m² | - |
| 1777742570 | 13.33° C | 33% | 1015.6 hPa | 0 mm | - | 438 W/m² | - |
| 1777742266 | 13.33° C | 35% | 1015.7 hPa | 0 mm | - | 492 W/m² | - |
| 1777741964 | 13.33° C | 31% | 1015.8 hPa | 0 mm | - | 499 W/m² | - |
| 1777741660 | 12.78° C | 34% | 1015.9 hPa | 0 mm | - | 681 W/m² | - |
| 1777741357 | 13.33° C | 34% | 1016 hPa | 0 mm | - | 664 W/m² | - |
| 1777741053 | 13.33° C | 33% | 1015.8 hPa | 0 mm | - | 653 W/m² | - |
| 1777740750 | 12.78° C | 33% | 1015.9 hPa | 0 mm | - | 645 W/m² | - |
| 1777740446 | 13.33° C | 36% | 1016.2 hPa | 0 mm | - | 629 W/m² | - |
| 1777740145 | 13.33° C | 33% | 1016.3 hPa | 0 mm | - | 639 W/m² | - |
| 1777739840 | 12.78° C | 34% | 1016.3 hPa | 0 mm | - | 617 W/m² | - |
| 1777739537 | 12.78° C | 37% | 1016.4 hPa | 0 mm | - | 619 W/m² | - |
| 1777739234 | 12.78° C | 34% | 1016.5 hPa | 0 mm | - | 609 W/m² | - |
| 1777738930 | 12.78° C | 35% | 1016.5 hPa | 0 mm | - | 568 W/m² | - |
| 1777738628 | 12.22° C | 35% | 1016.7 hPa | 0 mm | - | 561 W/m² | - |
| 1777738324 | 12.22° C | 35% | 1016.7 hPa | 0 mm | - | 547 W/m² | - |
| 1777738022 | 12.22° C | 36% | 1016.6 hPa | 0 mm | - | 556 W/m² | - |
| 1777737721 | 12.22° C | 37% | 1016.8 hPa | 0 mm | - | 552 W/m² | - |
| 1777737419 | 12.22° C | 35% | 1016.9 hPa | 0 mm | - | 547 W/m² | - |
| 1777737117 | 11.67° C | 39% | 1016.9 hPa | 0 mm | - | 541 W/m² | - |
| 1777736812 | 12.22° C | 38% | 1016.8 hPa | 0 mm | - | 543 W/m² | - |
| 1777736189 | 11.67° C | 37% | 1016.9 hPa | 0 mm | - | 522 W/m² | - |
| 1777735886 | 12.22° C | 35% | 1016.9 hPa | 0 mm | - | 512 W/m² | - |
* Rain latest hour (hover to see other rain measurements)
** Current wind speed in m/s (hover to see current wind gust speed)